Torna al catalogo

ONEWEB-0046

AttivoComunicazioniPO
NORAD 45447·PAYLOAD·🇬🇧 United Kingdom

Lanciato Mar 21, 2020 da Baikonur Cosmodrome

Loading…

Prossimi Passaggi (prossime 24 ore)

TLE

AggiornatoSource: CelesTrak SupGP

Epoca: Sep 14, 2026, 10:02 UTC

1 45447C 20020Z   26257.41855741 -.00004324  00000+0 -12214-1 0  2577
2 45447  87.8977   3.3282 0001972 108.4695 281.5523 13.11423415    14

Traccia ONEWEB-0046 in tempo reale con AllMySat

Download on the App Store